User: anonymous
Location: CNYAC Observatory
(43.2150°N, 74.9500°W)
Time: 13:35:07
(UTC-04:00)
Language:

Meteor 1-22 Rocket - Orbit

View from above orbital plane
View from above orbital plane
View from above satellite
View from above satellite

Ground track
Ground track

The orbit data is extracted from the following two-line orbital elements,

1 08294U 75087B   14211.41931574  .00000009  00000-0 -23784-5 0   285
2 08294 081.2235 328.5811 0107647 132.2747 291.4136 14.08504657996656
Epoch (UTC): 30 July 2014 10:03:48
Eccentricity: 0.0107647
inclination: 81.2235°
perigee height: 786 km
apogee height: 942 km
right ascension of ascending node: 328.5811°
argument of perigee: 132.2747°
revolutions per day: 14.08504657
mean anomaly at epoch: 291.4136°
orbit number at epoch: 99665

The dashed part of the orbit path shows where the satellite is in the earth's shadow,  

DLR